Regional Weather Roundup
Issued by NWS

Home | Current Version | Previous Version | Graphics & Text | Print | Product List | Glossary On
Versions: 1 2 3 4 5 6 7 8 9 10 11 12 13 14 15 16 17 18 19 20 21 22 23 24 25 26 27 28 29 30 31 32 33 34 35 36 37 38 39 40 41 42 43 44 45 46 47 48 49 50
232
ASUS45 KSLC 271910
RWRUT

UTAH REGIONAL WEATHER ROUNDUP
NATIONAL WEATHER SERVICE SALT LAKE CITY UT
100 PM MDT THU APR 27 2017

UTZ001>011-023>025-272000-

NORTHERN UTAH

CITY           SKY/WX    TMP DP  RH WIND       PRES   REMARKS
BRIGHAM CITY   PTSUNNY   47  21  34 NW13G18   29.82F
DUGWAY         MOSUNNY   48  21  34 N13G20    29.85S
HILL AFB       PTSUNNY   41  28  60 NW16G26   29.83R
LOGAN          CLOUDY    46  29  51 NW18      29.80F
OGDEN          CLOUDY    45  27  49 NW10      29.82S
SALT LAKE CITY PTSUNNY   48  28  46 NW21G29   29.84S
TOOELE VALLEY  PTSUNNY   48  32  53 NW16G24   29.86F
WENDOVER       CLOUDY    50  21  32 NW13G22   29.85F
HEBER CITY     PTSUNNY   43  25  49 N6        29.79S
WEST JORDAN    CLOUDY    46  37  73 NW22G29   29.85S

$$

UTZ011>015-024>027-272000-

CENTRAL/NORTHEAST UTAH

CITY           SKY/WX    TMP DP  RH WIND       PRES   REMARKS
PROVO AIRPORT  MOSUNNY   49  26  41 NW22G29   29.84S
MOAB/CANYONLAN SUNNY     60   8  12 W28G35    29.67F
DELTA          CLOUDY    48  21  34 N9G20     29.84F
PRICE          SUNNY     47  19  33 W21G33    29.73S
ROOSEVELT      SUNNY     54  18  24 W33       29.67S
VERNAL         CLOUDY    50  18  28 W6        29.63S

$$

UTZ013>016-019>022-027-272000-

SOUTHERN UTAH

CITY           SKY/WX    TMP DP  RH WIND       PRES   REMARKS
BRYCE CANYON   PTSUNNY   43  27  53 NW15G25   29.83F
CEDAR CITY     CLOUDY    53  27  36 NW9       29.81F
MILFORD        CLOUDY    52  31  44 VRB6      29.82F
ST GEORGE      PTCLDY    70  30  22 NW20G25   29.75F
HANKSVILLE     SUNNY     59  19  21 N20G30    29.74F
KANAB          SUNNY     64  16  15 W10G29    29.82F
BLANDING       MOSUNNY   57  27  31 W15G26    29.77F

$$

REGIONAL REPORTS     COLORADO/ARIZONA

CITY           SKY/WX    TMP DP  RH WIND       PRES   REMARKS
CRAIG, CO      CLOUDY    42  28  57 SW13      29.66F
GRAND JUNCTION PTSUNNY   53  33  46 N8        29.63F
RIFLE, CO      CLOUDY    51  25  36 W18       29.62F
MONTROSE, CO   MOSUNNY   58  20  22 NW18G28   29.63F
CORTEZ, CO     CLOUDY    53  35  50 W17G25    29.71F
COLORADO CITY    N/A     63  28  27 NW16G31   29.82F
PAGE, AZ       MOSUNNY   69  30  23 NW17G24   29.70F
GRAND CANYON   SUNNY     59  24  26 NW13G30   29.83F
KINGMAN, AZ    SUNNY     77  28  16 N15G23    29.79S
FLAGSTAFF, AZ  MOSUNNY   61  22  22 W16G30    29.84F

$$

REGIONAL REPORTS    NEVADA/IDAHO/WYOMING

CITY           SKY/WX    TMP DP  RH WIND       PRES   REMARKS
LAS VEGAS, NV  PTSUNNY   80  22  11 NW16G25   29.74F
ELY, NY        MOSUNNY   48  23  37 NW20G29   29.87F
ELKO, NV       CLOUDY    45  24  43 W14G22    29.90F
POCATELLO, ID  LGT RAIN  43  32  65 W24G33    29.78F
BURLEY, ID     LGT RAIN  45  27  49 W31G43    29.82S
EVANSTON, WY   CLOUDY    34  24  67 W14G28    29.75F WCI  25
ROCK SPRINGS,  CLOUDY    40  23  50 W32G46    29.63S WCI  28
KEMMERER, WY     N/A     34  27  75 W33G39    29.70S HAZE    WCI  19

$$




USA.gov is the U.S. government's official web portal to all federal, state and local government web resources and services.